Regional Weather Roundup
Issued by NWS Green Bay, WI

Home | Current Version | Previous Version | Graphics & Text | Print | Product List | Glossary Off
Versions: 1 2 3 4 5 6 7 8 9 10 11 12 13 14 15 16 17 18 19 20 21 22 23 24 25 26 27 28 29 30 31 32 33 34 35 36 37 38 39 40 41 42 43 44 45 46 47 48 49 50

000
ASUS43 KGRB 051100
RWRGRB

NORTH-CENTRAL AND NORTHEAST WISCONSIN REGIONAL WEATHER ROUNDUP
NATIONAL WEATHER SERVICE GREEN BAY WI
600 AM CDT SUN JUL 05 2015

WIZ005-009-010>012-018-019-051200-
NORTH CENTRAL WISCONSIN

CITY           SKY/WX    TMP DP  RH WIND       PRES   REMARKS
IRONWOOD       CLEAR     64  63  94 SW6       29.96S
MANITOWISH WTR NOT AVBL
ARBOR VITAE    NOT AVBL
EAGLE RIVER    NOT AVBL
LAND O LAKES   NOT AVBL
RHINELANDER    PTCLDY    62  60  93 S3        30.05R FOG
PHILLIPS       NOT AVBL
ANTIGO         NOT AVBL
TOMAHAWK       NOT AVBL
MERRILL        NOT AVBL
$$

WIZ013-073-051200-
NORTHEAST WISCONSIN

CITY           SKY/WX    TMP DP  RH WIND       PRES   REMARKS
IRON MOUNTAIN  MOCLDY    60  58  92 CALM      30.02R FOG
MARINETTE      CLEAR     63  57  82 CALM      30.03R
$$

WIZ017-030-035>037-045-051200-
CENTRAL WISCONSIN

CITY           SKY/WX    TMP DP  RH WIND       PRES   REMARKS
MEDFORD        NOT AVBL
WAUSAU         MOCLDY    63  62  97 N3        30.04R FOG
MOSINEE        MOCLDY    63  63 100 S6        30.05R
MARSHFIELD     CLEAR     61  57  87 S5        30.05R FOG
WISC RAPIDS    CLEAR     63  59  87 CALM      30.06R
STEVENS POINT  NOT AVBL
WAUPACA        NOT AVBL
SHAWANO        NOT AVBL
CLINTONVILLE   NOT AVBL
$$

WIZ038-039-048-051-051200-
FOX VALLEY

CITY           SKY/WX    TMP DP  RH WIND       PRES   REMARKS
NWS GREEN BAY  CLEAR     63  61  93 CALM      30.04R FOG
APPLETON       MOCLDY    64  61  88 SW7       30.05R
OSHKOSH        CLEAR     65  60  84 S5        30.04R HAZE
FOND DU LAC    CLEAR     63  60  90 SW5       30.06R FOG
$$

WIZ022-050-052-051200-
EAST CENTRAL WISCONSIN

CITY           SKY/WX    TMP DP  RH WIND       PRES   REMARKS
STURGEON BAY   CLEAR     61  55  82 SW3       30.07R
MANITOWOC      NOT AVBL
SHEBOYGAN      CLEAR     60  58  92 CALM      30.05R FOG
$$

LMZ563-521-522-541>543-051200-
LAKESHORE

STATION/POSITION TIME  TEMP    WIND        PRES    VSBY  WAVE
                       AIR SEA DIR/SP/G                  HT/PER
                 (UTC) (F)     (DEG/KT/KT) (MB)    (MI)  (FT/S)
SHEBOYGAN LKSHOR 1000   62     210/  3/  3 1017.3R
KEWAUNEE LKSHORE 1000   61     180/  2/  5 1016.0S
ALGOMA MARINA    1011          210/  7/  8   N/A
NORTHPORT PIER   1000   62     160/  7/ 11 1016.3S
N MID LAKE BUOY  0950   52 45  180/ 10/ 10 1016.7F         0
S GREEN BAY BUOY 1000   68 69  180/ 10/ 14 1017.5R
SISTER BAY LKSHO 1014   59     160/  9/ 12   N/A
CHAMBERS ISLAND  1000   63     150/  4/  7 1016.3R
MENOMINEE LKSHOR 1000   66     180/  9/ 11 1016.7R
$$



USA.gov is the U.S. government's official web portal to all federal, state and local government web resources and services.